Probability
0 0 0 0 0 0 0 0 0 0 0 0 1 2 4 4 4 6 7 6 6 7 8 7 5 4 4 6 8 11 15 16 15 13 11 9 8 7 6 6 7 8 8 7
0 0 0 0 0 0 0 0 0 0 0 0 2 3 4 4 4 5 7 7 6 7 8 7 6 4 5 7 9 11 14 15 15 13 11 10 8 6 5 5 6 6 5 5
0 0 0 0 0 0 0 0 0 0 0 1 3 4 4 4 4 5 7 8 7 6 7 7 6 6 7 9 11 11 12 13 14 13 12 11 8 4 4 4 4 4 3 3
0 0 0 0 0 0 0 0 0 0 1 2 4 4 4 5 5 6 7 8 7 7 6 6 6 7 9 11 12 12 12 12 12 12 12 10 7 5 5 5 4 3 3 3
0 0 0 0 1 1 0 0 0 2 3 3 3 3 3 4 4 4 5 7 8 7 7 6 7 9 12 14 14 13 12 11 11 12 12 10 7 6 6 6 5 4 4 4
0 0 0 1 2 1 0 0 1 3 4 3 2 2 2 2 1 1 3 5 7 6 6 7 9 12 14 15 14 12 10 9 10 11 11 9 8 7 6 7 7 6 6 6
0 0 0 1 2 1 0 0 1 3 4 2 1 1 1 1 0 0 2 5 6 5 6 8 10 13 14 13 12 9 7 7 7 8 8 8 7 6 6 6 6 7 6 6
0 0 0 0 1 1 0 0 1 2 2 1 0 0 0 0 0 0 1 3 4 3 4 5 7 9 9 9 8 7 5 5 5 5 5 6 6 6 5 5 5 5 4 4
0 0 0 0 0 0 0 0 1 1 1 0 0 0 0 0 0 0 0 1 1 1 1 2 3 3 4 5 5 4 4 3 3 3 4 4 5 6 5 5 5 4 4 4
0 0 0 0 0 0 0 0 0 0 1 1 0 0 0 0 0 0 1 1 1 1 2 2 2 2 3 3 4 3 3 3 2 3 3 4 5 6 7 7 7 7 7 7
0 0 0 0 0 0 0 0 0 1 2 2 1 0 0 0 0 0 1 1 1 1 2 2 3 3 3 3 2 2 1 2 2 3 4 5 6 6 5 5 6 7 9 10
0 0 0 0 0 0 0 0 1 2 3 2 1 0 0 0 0 0 0 0 0 1 1 1 2 2 2 1 1 1 0 1 2 3 5 6 6 5 3 2 2 3 5 7
0 0 0 0 0 0 0 1 2 2 2 1 0 0 0 0 0 0 0 0 0 0 0 0 0 1 1 0 0 0 0 0 1 2 4 6 5 4 2 1 0 0 1 2
0 0 0 0 0 0 1 2 2 1 1 0 0 0 0 0 0 0 0 0 0 0 0 0 0 0 0 0 0 0 0 0 0 1 2 3 4 4 3 1 0 0 0 0
0 0 0 0 0 1 2 2 1 0 0 0 0 0 0 0 0 0 0 0 0 0 0 0 0 0 0 0 0 0 0 0 0 0 1 2 3 3 3 2 1 0 0 0
0 0 0 0 0 1 1 1 0 0 0 0 0 0 0 0 0 0 0 0 0 0 0 0 0 0 0 0 0 0 0 0 1 1 1 1 2 2 2 2 1 0 0 0
0 0 0 0 0 0 0 0 0 0 0 0 0 0 0 0 0 1 1 1 0 0 0 0 0 0 0 0 0 0 0 0 1 1 1 1 1 2 1 1 0 0 0 0
0 0 0 0 0 0 0 0 0 0 0 0 0 0 0 0 0 1 2 1 0 0 0 0 0 0 0 0 0 0 0 0 0 0 0 0 1 2 2 1 0 0 0 0
0 0 0 0 0 0 0 0 0 0 0 0 0 0 0 0 0 1 1 1 0 0 0 0 0 0 0 0 0 0 0 0 0 0 0 0 1 2 2 1 0 0 0 0
0 0 0 0 0 0 0 0 0 0 0 0 0 0 0 0 0 0 0 0 0 0 0 0 0 0 0 0 0 0 0 0 0 0 0 0 0 1 1 0 0 0 0 0
0 0 0 0 0 0 0 0 0 0 0 0 0 0 0 0 0 0 0 0 0 0 0 0 0 0 0 0 0 0 0 0 0 0 0 0 0 0 0 0 0 0 0 0
0 0 0 0 0 0 0 0 0 0 0 0 0 0 0 0 0 0 0 0 0 0 0 0 0 0 0 0 0 0 0 0 0 0 0 0 0 0 0 0 0 0 0 0
0 0 0 0 0 0 0 0 0 0 0 0 0 0 0 0 0 0 0 0 0 0 0 0 0 0 0 0 0 0 0 0 0 0 0 0 0 0 0 0 0 0 0 0
0 0 0 0 0 0 0 0 0 0 0 0 0 0 0 0 0 0 0 0 0 0 0 0 0 0 0 0 0 0 0 0 0 0 0 0 0 0 0 0 0 0 0 0
0 0 0 0 0 0 0 0 0 0 0 0 0 0 0 0 0 0 0 0 0 0 0 0 0 0 0 0 0 0 0 0 0 0 0 0 0 0 0 0 0 0 0 0
0 0 0 0 0 0 0 0 0 0 0 0 0 0 0 0 0 0 0 0 0 0 0 0 0 0 0 0 0 0 0 0 0 0 0 0 0 0 0 0 0 0 0 0
0 0 0 0 0 0 0 0 0 0 0 0 0 0 0 0 0 0 0 0 0 0 0 0 0 0 0 0 0 0 0 0 0 0 0 0 0 0 0 0 0 0 0 0
Wind_Speed
3 3 2 2 2 3 4 6 7 7 6 8 5 4 3 2 3 3 3 3 3 4 3 3 3 3 3 2 2 3 3 2 2 2 2 1 1 1 1 1 2 2 2 2
2 1 0 1 2 3 3 3 3 2 5 4 1 1 1 3 4 4 3 3 3 3 4 3 3 3 3 2 2 2 3 3 2 1 1 1 1 1 1 1 1 1 1 2
2 3 3 3 4 3 2 2 3 4 5 1 1 1 2 3 4 4 3 3 4 4 3 3 3 3 3 2 2 2 2 2 2 2 2 2 2 1 2 2 1 1 2 2
2 2 3 7 3 2 2 1 1 2 2 1 2 1 1 2 3 3 2 3 2 2 2 2 2 2 2 2 2 2 2 2 2 2 2 2 2 2 2 2 2 2 3 3
4 3 4 5 2 2 2 1 1 1 1 2 2 3 3 1 1 2 2 2 2 2 2 2 2 2 3 2 1 1 2 2 3 2 2 2 2 3 2 2 2 2 2 3
4 4 6 6 3 1 3 2 2 2 3 2 3 2 3 1 1 1 1 2 2 2 2 2 1 3 3 2 1 1 2 3 2 2 3 3 3 2 2 2 2 2 2 3
3 3 6 5 4 1 3 6 2 3 4 3 3 4 2 1 1 2 2 2 3 3 2 1 1 2 2 1 1 2 2 1 1 1 2 2 2 2 2 2 2 2 3 3
3 2 6 3 2 3 5 2 1 2 3 3 2 1 1 1 2 2 2 2 3 2 2 1 1 2 2 0 2 2 1 0 1 1 1 1 1 2 1 1 2 2 2 3
6 6 5 2 2 2 2 1 1 2 1 3 2 1 1 1 1 1 2 2 1 2 2 1 1 1 1 2 1 1 1 1 1 1 1 1 1 1 1 1 2 2 2 3
2 4 4 3 2 1 1 1 1 2 2 3 2 2 1 1 1 1 1 1 1 2 2 1 1 0 1 1 1 1 1 1 1 1 1 1 1 1 1 2 2 3 3 4
2 4 4 4 2 1 1 3 4 3 3 2 3 1 2 1 1 1 1 0 1 2 2 1 1 1 1 1 1 1 1 1 1 1 1 1 1 1 2 3 3 3 4 4
5 5 4 6 4 1 1 1 2 3 2 1 2 2 2 1 1 1 1 1 1 1 1 0 1 1 2 1 0 0 1 1 1 1 1 1 1 2 3 3 4 4 5 4
5 3 4 4 3 1 1 1 1 2 2 1 1 2 3 2 1 1 1 1 1 1 1 0 1 2 2 2 1 0 1 1 1 1 1 1 1 1 3 4 4 4 4 4
3 1 1 2 2 1 1 1 1 1 0 1 1 2 2 2 1 1 2 2 2 1 0 0 0 1 2 1 1 1 1 1 1 1 1 1 1 2 2 2 3 4 4 4
2 2 3 2 1 0 1 2 2 1 1 1 1 2 2 2 2 2 2 2 2 1 1 1 1 2 2 1 0 1 1 1 1 1 1 1 1 1 1 2 2 3 3 4
1 1 1 1 1 0 1 1 2 1 0 1 1 1 2 2 2 1 1 1 2 2 2 2 2 3 2 1 1 1 1 2 2 1 1 1 1 1 2 2 2 3 3 3
2 1 1 1 2 1 1 1 2 2 1 2 2 2 2 1 1 1 2 2 2 3 2 2 3 3 1 1 1 1 1 2 2 2 2 2 1 1 2 2 2 3 3 3
5 5 5 5 4 3 1 1 1 1 1 2 1 1 1 2 2 3 2 1 0 2 3 3 3 2 2 2 1 1 1 2 1 1 2 2 2 2 2 2 2 3 3 3
3 3 3 3 3 3 2 1 1 1 1 1 1 2 2 3 3 2 1 1 1 3 4 3 3 2 2 3 2 1 1 2 1 1 2 2 2 2 2 2 2 2 3 3
1 2 2 2 2 2 2 1 1 1 1 1 1 1 2 2 2 2 1 2 3 4 4 3 2 2 3 2 1 1 1 1 1 2 1 2 2 2 1 1 2 2 3 3
2 2 2 2 1 1 1 2 2 2 1 1 2 2 2 2 1 1 1 2 4 3 3 3 2 2 2 2 1 1 1 1 1 1 1 2 2 2 2 1 1 2 2 3
1 2 1 1 1 0 1 1 2 2 1 1 1 1 1 1 1 1 2 3 4 3 2 2 2 2 2 1 1 1 1 1 1 1 1 1 1 1 2 2 2 2 2 2
1 1 1 1 1 1 1 1 1 1 1 1 2 2 2 3 2 2 3 3 2 3 2 2 2 2 1 0 1 1 1 1 1 1 1 2 2 2 1 2 2 2 2 2
1 1 1 1 1 1 0 1 1 1 2 2 2 3 2 2 2 2 3 3 3 2 2 2 2 1 1 0 0 1 1 1 1 1 1 2 2 2 1 1 2 2 2 3
1 1 1 1 1 1 2 2 1 1 1 1 2 2 2 2 2 2 2 2 3 2 2 2 1 1 0 1 1 1 1 1 1 1 1 1 2 2 2 2 2 2 2 2
1 1 2 2 2 2 2 2 1 1 1 1 2 1 1 1 1 2 1 1 1 1 1 1 0 0 0 0 1 1 1 1 1 1 1 1 2 2 2 2 2 2 2 2
0 0 0 1 1 1 2 2 2 2 2 2 1 1 1 1 1 1 1 0 0 0 0 0 0 0 0 0 1 1 1 1 2 2 2 1 1 2 2 2 1 1 1 1
Wind_Direction
229 237 185 206 220 186 179 185 189 226 226 254 256 234 213 172 143 131 142 150 161 167 163 157 153 155 161 164 165 163 158 171 205 218 210 207 229 228 222 217 212 197 201 222
352 344 180 272 275 221 209 194 207 230 259 262 273 97 119 136 142 158 174 171 167 161 156 162 172 173 169 178 177 164 176 201 216 212 204 211 233 237 223 226 225 188 214 228
241 311 27 288 254 205 210 221 182 211 243 297 344 165 174 171 160 166 176 177 177 178 177 173 176 169 176 188 178 174 194 209 207 198 210 231 236 234 240 239 219 214 228 227
140 76 222 243 273 186 168 249 240 251 275 219 210 185 122 143 155 161 165 163 173 172 174 162 154 153 153 146 167 183 202 219 219 203 217 231 229 239 247 241 230 233 238 235
131 173 263 292 289 152 156 268 280 186 76 55 85 67 20 22 129 165 166 166 176 170 160 138 133 136 124 121 134 182 237 241 233 214 219 226 235 248 249 239 244 243 241 236
130 157 222 248 279 263 120 278 280 151 139 113 84 84 276 292 116 119 108 116 119 117 101 105 119 122 121 129 140 236 254 254 246 219 213 221 234 243 244 235 246 250 254 246
151 202 255 265 298 72 151 242 229 176 175 164 175 209 232 167 114 119 120 112 104 106 105 121 128 127 128 126 241 264 271 261 256 240 226 226 231 230 231 237 253 258 264 269
144 182 253 301 67 159 218 251 174 181 181 169 171 128 103 113 110 104 95 89 99 101 85 63 92 119 114 207 270 284 275 260 284 282 267 258 234 247 239 227 242 265 275 284
190 214 251 275 227 248 190 179 199 166 176 147 142 143 114 109 112 116 123 112 109 107 82 53 76 122 167 247 283 339 22 321 300 304 297 291 257 261 273 253 248 265 272 280
264 280 296 298 288 298 191 174 174 123 124 121 144 161 151 138 137 138 140 143 132 108 90 8 351 350 270 312 13 50 23 299 300 314 317 315 297 270 263 259 257 264 269 275
261 286 319 310 285 272 54 73 81 78 91 126 138 166 167 153 154 151 139 183 140 144 160 235 309 3 344 339 34 37 304 287 292 273 278 309 313 294 276 266 252 250 258 257
226 230 215 255 273 275 106 109 111 94 47 27 145 176 163 165 179 164 166 155 131 135 142 332 1 353 343 337 20 57 324 314 299 301 311 314 319 333 335 299 302 276 259 251
233 237 229 257 276 262 210 190 148 135 160 237 232 173 162 172 187 176 174 173 184 201 190 140 10 344 333 342 8 15 280 291 297 293 298 302 301 303 320 334 333 320 307 290
236 204 272 273 259 260 187 153 84 58 312 194 167 146 143 150 149 168 201 211 183 170 225 231 228 290 298 312 305 280 273 271 274 269 276 277 281 288 292 304 318 323 325 313
279 220 210 243 279 351 94 92 81 43 52 52 100 139 150 159 184 218 223 203 163 168 243 268 262 280 298 300 289 285 279 276 273 270 272 273 282 292 298 302 299 303 315 326
281 44 113 121 163 138 103 130 138 196 211 172 176 194 195 188 202 224 224 181 171 209 243 256 272 282 290 262 249 280 290 306 308 292 296 301 309 306 304 304 301 300 303 304
158 194 214 225 226 239 239 226 195 203 216 200 212 206 184 168 179 240 252 237 218 234 244 242 263 283 282 253 232 243 263 296 312 315 300 288 281 277 284 294 302 303 302 296
206 207 204 204 202 205 232 241 188 192 213 221 203 155 168 192 215 236 247 253 274 300 282 263 266 288 288 269 245 242 242 253 259 258 277 284 284 281 283 288 295 303 309 314
203 193 193 191 190 179 189 208 217 230 242 213 195 215 231 239 238 242 230 200 231 270 279 279 280 271 270 267 266 246 262 275 285 280 282 290 287 288 291 298 298 297 298 309
112 131 145 159 158 159 177 201 191 215 242 201 199 236 258 260 239 217 213 240 247 245 261 275 274 265 265 267 268 228 241 256 270 285 298 298 290 290 295 301 303 303 305 302
104 110 115 126 115 132 179 180 173 206 241 214 209 230 244 255 240 209 208 271 281 266 263 265 261 261 260 258 255 227 234 251 267 272 274 283 288 295 299 301 311 317 310 305
127 123 133 136 127 255 271 193 186 203 233 244 235 231 242 270 267 261 248 245 265 272 265 261 259 254 250 246 223 219 230 243 262 273 273 283 285 287 300 310 315 317 313 312
153 145 156 178 182 218 300 286 222 199 210 224 230 229 230 243 238 224 269 269 258 264 265 266 261 255 262 268 218 215 228 237 254 269 278 285 278 271 283 299 305 307 306 308
210 186 188 200 167 149 226 267 257 232 230 238 235 230 224 235 271 259 246 269 272 272 272 271 276 275 270 198 192 201 228 245 249 253 274 291 288 280 281 288 295 298 303 308
217 211 198 183 193 213 219 229 232 241 245 257 266 255 237 220 233 260 263 268 272 277 284 290 294 290 178 157 175 196 222 243 253 252 257 274 284 286 285 284 282 287 299 305
218 216 222 223 219 214 212 205 215 244 236 250 280 279 270 261 252 261 270 274 279 280 284 300 315 347 69 207 231 232 233 246 250 251 252 260 272 279 283 289 297 300 307 315
314 256 226 274 272 225 212 211 215 233 222 207 249 280 290 300 297 288 282 296 333 4 339 317 322 65 118 220 247 261 263 257 256 261 267 272 276 283 290 299 308 322 339 338